Date String (YYYY-MM-DD hh:mm:ss) UTC,Instrument flags,Ambient pressure (hPa),Sample flow (lpm),Bypass flow (lpm),Sample temperature (°C),Ambient temperature (°C),ASC tube jacket temperature (°C),LED temperature (°C),Box temperature (°C),Sample RH (%),Span deviation,Mass concentration (μg/m³),Mass concentration (μg/m³),Mass concentration (μg/m³)
DateTimeUTC,F1_M11,P_M11,Q1_M11,Q2_M11,T1_M11,T2_M11,T3_M11,T4_M11,T5_M11,U1_M11,ZSPAN_M11,X0_M11,X2_M11,X1_M11
2022-12-19 17:00:00,,0824.3,5.04,0.00,22.1,21.1,00.0,30.8,24.0,06.0,0000.0,0009.67,0003.05,0002.29
2022-12-19 17:01:00,,0824.2,4.96,0.00,22.2,21.1,00.0,30.9,24.0,05.9,0000.0,0009.42,0002.87,0002.22
2022-12-19 17:02:00,,0824.2,5.03,0.00,22.2,21.1,00.0,30.9,24.0,06.0,0000.0,0008.68,0002.77,0002.18
2022-12-19 17:03:00,,0824.2,4.98,0.00,22.2,21.1,00.0,30.9,24.0,06.0,0000.0,0008.55,0002.73,0002.16
2022-12-19 17:04:00,,0824.3,5.01,0.00,22.2,21.1,00.0,30.9,24.0,05.8,0000.0,0008.50,0002.72,0002.14
2022-12-19 17:05:00,,0824.2,5.02,0.00,22.2,21.0,00.0,30.9,24.0,05.4,0000.0,0007.49,0002.60,0002.06
2022-12-19 17:06:00,,0824.2,4.95,0.00,22.2,20.9,00.0,30.9,24.0,05.3,0000.0,0005.82,0002.44,0001.96
2022-12-19 17:07:00,,0824.2,5.03,0.00,22.2,20.8,00.0,30.9,23.9,05.6,0000.0,0005.63,0002.31,0001.85
2022-12-19 17:08:00,,0824.2,5.03,0.00,22.1,20.7,00.0,30.9,23.9,05.5,0000.0,0005.86,0002.18,0001.75
2022-12-19 17:09:00,,0824.2,4.95,0.00,22.1,20.7,00.0,30.9,23.9,05.3,0000.0,0006.27,0002.05,0001.63
2022-12-19 17:10:00,,0824.3,5.02,0.00,22.1,20.6,00.0,30.9,23.8,05.3,0000.0,0006.38,0001.90,0001.50
2022-12-19 17:11:00,,0824.4,5.02,0.00,22.1,20.6,00.0,30.9,23.8,05.2,0000.0,0005.95,0001.77,0001.38
2022-12-19 17:12:00,,0824.4,4.98,0.00,22.1,20.6,00.0,30.9,23.8,05.3,0000.0,0005.43,0001.69,0001.28
2022-12-19 17:13:00,,0824.4,4.98,0.00,22.1,20.5,00.0,30.9,23.8,05.3,0000.0,0005.39,0001.60,0001.17
2022-12-19 17:14:00,,0824.4,5.02,0.00,22.0,20.5,00.0,30.9,23.8,05.5,0000.0,0005.11,0001.48,0001.09
2022-12-19 17:15:00,,0824.4,4.99,0.00,22.0,20.5,00.0,30.9,23.8,05.5,0000.0,0004.97,0001.39,0001.02
2022-12-19 17:16:00,,0824.6,4.98,0.00,22.0,20.6,00.0,30.9,23.8,05.5,0000.0,0004.79,0001.36,0000.99
2022-12-19 17:17:00,,0824.5,5.03,0.00,22.0,20.6,00.0,30.9,23.8,06.2,0000.0,0005.00,0001.47,0001.06
2022-12-19 17:18:00,,0824.7,4.97,0.00,22.0,20.7,00.0,30.9,23.8,06.2,0000.0,0005.45,0001.67,0001.17
2022-12-19 17:19:00,,0824.6,4.99,0.00,22.0,20.7,00.0,30.9,23.8,05.7,0000.0,0005.09,0001.70,0001.17
2022-12-19 17:20:00,,0824.5,5.04,0.00,22.0,20.6,00.0,30.9,23.8,05.9,0000.0,0004.91,0001.81,0001.22
2022-12-19 17:21:00,,0824.5,4.97,0.00,22.0,20.5,00.0,30.9,23.7,05.3,0000.0,0004.35,0001.87,0001.23
2022-12-19 17:22:00,,0824.4,5.01,0.00,22.0,20.4,00.0,30.9,23.6,05.2,0000.0,0004.28,0001.87,0001.22
2022-12-19 17:23:00,,0824.4,5.03,0.00,21.9,20.4,00.0,30.9,23.6,05.2,0000.0,0004.28,0001.84,0001.21
2022-12-19 17:24:00,,0824.4,4.98,0.00,21.9,20.3,00.0,30.8,23.6,05.2,0000.0,0004.72,0001.86,0001.20
2022-12-19 17:25:00,,0824.5,5.00,0.00,21.9,20.3,00.0,30.8,23.6,05.5,0000.0,0004.99,0001.87,0001.20
2022-12-19 17:26:00,,0824.8,5.04,0.00,21.9,20.3,00.0,30.8,23.6,05.5,0000.0,0004.95,0001.87,0001.21
2022-12-19 17:27:00,,0824.6,4.96,0.00,21.9,20.3,00.0,30.8,23.6,05.5,0000.0,0005.08,0001.92,0001.23
2022-12-19 17:28:00,,0824.4,5.02,0.00,21.9,20.3,00.0,30.8,23.6,05.3,0000.0,0004.99,0001.86,0001.19
2022-12-19 17:29:00,,0824.4,5.03,0.00,21.9,20.4,00.0,30.8,23.6,05.3,0000.0,0004.64,0001.69,0001.06
2022-12-19 17:30:00,,0824.5,4.96,0.00,21.9,20.5,00.0,30.8,23.7,05.4,0000.0,0004.45,0001.61,0001.02
2022-12-19 17:31:00,,0824.4,5.03,0.00,21.9,20.6,00.0,30.8,23.7,05.4,0000.0,0003.46,0001.50,0000.95
2022-12-19 17:32:00,,0824.5,5.02,0.00,21.9,20.7,00.0,30.8,23.7,05.4,0000.0,0003.94,0001.46,0000.95
2022-12-19 17:33:00,,0824.4,4.96,0.00,21.9,20.7,00.0,30.8,23.7,05.3,0000.0,0004.49,0001.47,0000.95
2022-12-19 17:34:00,,0824.4,5.02,0.00,21.9,20.6,00.0,30.8,23.7,05.3,0000.0,0005.18,0001.51,0000.96
2022-12-19 17:35:00,,0824.4,5.01,0.00,21.9,20.6,00.0,30.8,23.7,05.4,0000.0,0005.55,0001.47,0000.96
2022-12-19 17:36:00,,0824.5,4.95,0.00,21.9,20.6,00.0,30.8,23.7,05.4,0000.0,0007.96,0001.49,0000.95
2022-12-19 17:37:00,,0824.4,5.03,0.00,21.9,20.6,00.0,30.8,23.7,05.3,0000.0,0009.05,0001.47,0000.92
2022-12-19 17:38:00,,0824.3,5.02,0.00,21.9,20.5,00.0,30.8,23.7,05.5,0000.0,0009.31,0001.45,0000.91
2022-12-19 17:39:00,,0824.2,4.96,0.00,21.9,20.5,00.0,30.8,23.7,05.4,0000.0,0009.31,0001.44,0000.90
2022-12-19 17:40:00,,0824.2,5.02,0.00,21.9,20.4,00.0,30.8,23.6,05.3,0000.0,0009.41,0001.41,0000.89
2022-12-19 17:41:00,,0824.2,5.03,0.00,21.9,20.4,00.0,30.8,23.6,05.3,0000.0,0009.42,0001.40,0000.87
2022-12-19 17:42:00,,0824.3,4.94,0.00,21.9,20.4,00.0,30.8,23.6,05.4,0000.0,0009.51,0001.44,0000.87
2022-12-19 17:43:00,,0824.3,5.03,0.00,21.9,20.5,00.0,30.7,23.7,05.5,0000.0,0009.59,0001.43,0000.86
2022-12-19 17:44:00,,0824.3,5.01,0.00,21.9,20.6,00.0,30.7,23.7,05.4,0000.0,0009.51,0001.43,0000.86
2022-12-19 17:45:00,,0824.5,4.96,0.00,21.9,20.7,00.0,30.7,23.7,05.5,0000.0,0009.23,0001.42,0000.86
2022-12-19 17:46:00,,0824.4,5.03,0.00,21.9,20.8,00.0,30.7,23.8,05.4,0000.0,0008.90,0001.49,0000.87
2022-12-19 17:47:00,,0824.3,4.98,0.00,21.9,20.8,00.0,30.8,23.8,05.4,0000.0,0007.65,0001.48,0000.86
2022-12-19 17:48:00,,0824.3,4.99,0.00,22.0,20.8,00.0,30.8,23.7,05.4,0000.0,0007.19,0001.51,0000.85
2022-12-19 17:49:00,,0824.0,5.03,0.00,22.0,20.8,00.0,30.7,23.7,05.5,0000.0,0008.32,0001.57,0000.85
2022-12-19 17:50:00,,0824.0,4.96,0.00,22.0,20.8,00.0,30.8,23.8,05.4,0000.0,0008.87,0001.64,0000.86
2022-12-19 17:51:00,,0823.9,5.02,0.00,22.0,20.8,00.0,30.8,23.8,05.4,0000.0,0008.92,0001.76,0000.86
2022-12-19 17:52:00,,0823.9,5.02,0.00,22.0,20.8,00.0,30.8,23.8,05.3,0000.0,0009.06,0001.85,0000.85
2022-12-19 17:53:00,,0823.9,4.95,0.00,22.0,20.7,00.0,30.8,23.7,05.3,0000.0,0009.06,0001.85,0000.84
2022-12-19 17:54:00,,0823.8,5.01,0.00,22.0,20.7,00.0,30.8,23.7,05.4,0000.0,0009.14,0001.96,0000.83
2022-12-19 17:55:00,,0823.7,5.01,0.00,22.0,20.7,00.0,30.8,23.8,05.4,0000.0,0009.37,0002.02,0000.83
2022-12-19 17:56:00,,0823.7,4.99,0.00,22.0,20.7,00.0,30.8,23.8,05.3,0000.0,0009.69,0002.16,0000.84
2022-12-19 17:57:00,,0823.7,5.00,0.00,22.0,21.4,00.0,30.8,24.0,05.3,0000.0,0010.86,0002.33,0000.84
2022-12-19 17:58:00,,0823.7,4.99,0.00,22.2,22.4,00.0,30.8,24.2,05.3,0000.0,0011.67,0002.59,0000.85
2022-12-19 17:59:00,,0823.5,5.02,0.00,22.3,22.6,00.0,30.8,24.4,05.3,0000.0,0011.98,0002.67,0000.86
